Location: Unspecified
(0.0000°N, 0.0000°E)
Time: 16:39:48
(UTC+00:00)

Transit 2A - Pass Details

Date: 19 April 2024
Orbit: 590 x 960 km, 66.7° (Epoch: 19 September)

Event Time Altitude Azimuth Distance (km) Brightness Sun altitude
Rises 15:53:53 0° 7° (N) 3,508 9.5 30.6°
Reaches altitude 10° 15:56:55 10° 21° (NNE) 2,615 8.8 29.8°
Maximum altitude 16:01:34 22° 71° (ENE) 1,924 7.8 28.7°
Drops below altitude 10° 16:06:20 10° 120° (ESE) 2,694 8.4 27.6°
Sets 16:09:29 0° 134° (SE) 3,641 9.0 26.8°
